Location: Cambridge (historical)
(38.6883°N, 119.0140°W)
Time: 22:53:04
(UTC+00:00)

X-37B - Visible Passes

Search period start: 22 June 2021 00:00
Search period end: 02 July 2021 00:00
Orbit: 386 x 389 km, 45.0° (Epoch: 10 June)

Date Brightness Start Highest point End Pass type
(mag) Time Alt. Az. Time Alt. Az. Time Alt. Az.
22 Jun 1.9 04:30:59 10° SSW 04:33:25 20° SE 04:33:39 20° SE visible
22 Jun 2.7 09:25:04 25° NE 09:25:04 25° NE 09:26:56 10° E visible
22 Jun 0.5 10:57:40 10° WNW 11:00:48 60° SSW 11:03:55 10° SE visible
23 Jun 0.4 05:08:17 10° WSW 05:11:28 76° SSE 05:13:41 18° ENE visible
23 Jun 3.4 06:45:27 10° WNW 06:46:08 14° WNW 06:46:08 14° WNW visible
23 Jun 2.9 10:04:44 17° ESE 10:04:44 17° ESE 10:05:37 10° ESE visible
23 Jun 2.2 11:37:17 12° WSW 11:38:47 16° SW 11:40:52 10° S visible
24 Jun 1.1 04:10:11 10° SW 04:13:09 39° SSE 04:16:10 10° ENE visible
24 Jun 2.0 05:46:47 10° W 05:49:48 39° NNW 05:51:55 17° NE visible
24 Jun 3.9 07:24:15 10° WNW 07:24:16 10° WNW 07:24:16 10° WNW visible
25 Jun 1.1 04:48:13 10° WSW 04:51:22 61° NNW 04:54:32 10° ENE visible
25 Jun 2.8 06:25:39 10° WNW 06:28:23 25° N 06:29:00 24° NNE visible
26 Jun 2.6 05:26:59 10° WNW 05:29:51 29° N 05:32:42 10° NE visible
26 Jun 3.4 07:04:16 10° NW 07:05:34 19° NW 07:05:34 19° NW visible
27 Jun 2.1 04:28:19 10° W 04:31:20 39° NNW 04:34:22 10° NE visible
27 Jun 2.8 06:05:47 10° WNW 06:08:28 25° N 06:09:38 20° NE visible
28 Jun 2.8 05:07:12 10° WNW 05:09:55 25° N 05:12:39 10° NE visible
28 Jun 3.0 06:44:10 10° NW 06:45:52 24° NNW 06:45:52 24° NNW visible
29 Jun 2.6 04:08:31 10° WNW 04:11:23 29° N 04:14:14 10° NE visible
29 Jun 2.6 05:45:48 10° NW 05:48:34 27° N 05:49:48 21° NE visible
30 Jun 2.8 04:47:19 10° WNW 04:50:01 25° N 04:52:42 10° ENE visible
30 Jun 2.5 06:24:01 10° NW 06:25:57 30° NW 06:25:57 30° NW visible
01 Jul 2.1 05:25:42 10° NW 05:28:38 33° NNE 05:29:51 24° ENE visible
